STARLINK-2282 (48018 NORAD) Tracking and Keplerian Element Data

This shows tracking and keplerian element data for the satellite.

Feedback or suggestion? Click here.




ElementValue
Catalog48018
NameSTARLINK-2282
Epoch Orbit194
Epoch Day170.58334491
Epoch Year2021
RAAN140.4745
Inclination53.0922
Eccentricity0.000145
Argument of Perigee82.0633
Mean Anonmoly233.0616
Mean Motion15.06529712
Decay Rate-0.00205385
L11 48018U 21024AT 21170.58334491 -.00205385 00000-0 -14123-1 0 9995
L22 48018 53.0922 140.4745 0001450 82.0633 233.0616 15.06529712 1944

Live tracking and technical data element details for STARLINK-2282 (NORAD 48018). STARLINK-2282 can be tracked NOW for your location showing map with azimuth and elevation plus other details from your city location.

Track the satellite on the map from your city or location and see movement details for azimuth, elevation, latitude, longitude, range, height, and movement on the map or in text.







IsCatalogInMostPopularTable: catalog: 48018, numindb: 43
Update: records affected: 1



GetName: 48018 STARLINK-2282

Hit Count: updated at: Mon, 21 Jun 2021 04:34:55 GMT